VA7NEZ Weather Reports


time (UTC)temp
C
wind
direction
speed
KPH
gust
KPH
rain 1hr
cm
rain 24hr
cm
rain mn
cm
humidity
%
barometer
mb
20260506132406 8 0 0.0 0.0 0.00 0.00 0.00 69 1013.3
20260506131458 0 0 0.0 0.0 0.00 0.00 0.00 100 1013.2
20260506130652 8 0 0.0 0.0 0.00 0.00 0.00 70 1013.1
20260506125657 8 0 0.0 0.0 0.00 0.00 0.00 68 1013.0
20260506124712 8 0 0.0 0.0 0.00 0.00 0.00 68 1013.0
20260506122057 8 0 0.0 0.0 0.00 0.00 0.00 66 1012.9
20260506120251 8 0 0.0 0.0 0.00 0.00 0.00 66 1012.7
20260506115437 0 0 0.0 0.0 0.00 0.00 0.00 100 1012.6
20260506114617 9 0 0.0 0.0 0.00 0.00 0.00 63 1012.5
20260506113712 9 0 0.0 0.0 0.00 0.00 0.00 63 1012.5
20260506112840 9 0 0.0 0.0 0.00 0.00 0.00 63 1012.6
20260506112032 0 0 0.0 0.0 0.00 0.00 0.00 100 1012.3
20260506111037 9 0 0.0 0.0 0.00 0.00 0.00 65 1012.3
20260506110123 10 0 0.0 0.0 0.00 0.00 0.00 64 1012.2
20260506105153 10 0 0.0 0.0 0.00 0.00 0.00 62 1012.0
20260506103317 10 0 0.0 0.0 0.00 0.00 0.00 61 1011.9
20260506102342 10 0 0.0 0.0 0.00 0.00 0.00 62 1011.9
20260506100446 10 0 0.0 0.0 0.00 0.00 0.00 62 1011.7
20260506095607 10 0 0.0 0.0 0.00 0.00 0.00 60 1011.7
20260506094757 10 0 0.0 0.0 0.00 0.00 0.00 62 1011.7
20260506093945 11 0 0.0 0.0 0.00 0.00 0.00 59 1011.7
20260506092108 11 0 0.0 0.0 0.00 0.00 0.00 62 1011.7
20260506091207 11 0 0.0 0.0 0.00 0.00 0.00 56 1011.7
20260506090402 11 0 0.0 0.0 0.00 0.00 0.00 56 1011.7
20260506085542 11 0 0.0 0.0 0.00 0.00 0.00 55 1011.8
20260506084742 11 0 0.0 0.0 0.00 0.00 0.00 55 1011.7
20260506083857 12 0 0.0 0.0 0.00 0.00 0.00 53 1011.6
20260506082947 12 0 0.0 0.0 0.00 0.00 0.00 53 1011.5
20260506080354 12 0 0.0 0.0 0.00 0.00 0.00 53 1011.5
20260506072607 13 0 0.0 0.0 0.00 0.00 0.00 53 1011.5
20260506071652 13 0 0.0 0.0 0.00 0.00 0.00 52 1011.4
20260506070657 0 0 0.0 0.0 0.00 0.00 0.00 100 1011.1
20260506062017 15 0 0.0 0.0 0.00 0.00 0.00 49 1011.0
20260506061032 15 136 0.0 1.6 0.00 0.00 0.00 48 1010.8
20260506050632 17 0 0.0 0.0 0.00 0.00 0.00 48 1010.6
20260506043916 18 119 0.0 3.2 0.00 0.00 0.00 41 1010.5
20260506042147 20 0 0.0 0.0 0.00 0.00 0.00 38 1010.0
20260506041315 20 348 0.0 1.6 0.00 0.00 0.00 39 1010.0
20260506040456 20 0 0.0 0.0 0.00 0.00 0.00 36 1010.0
20260506035527 21 0 0.0 0.0 0.00 0.00 0.00 33 1009.7
20260506033807 22 0 0.0 0.0 0.00 0.00 0.00 30 1009.6
20260506032837 23 0 0.0 0.0 0.00 0.00 0.00 29 1009.5
20260506032027 23 0 0.0 0.0 0.00 0.00 0.00 28 1009.6
20260506025118 0 0 0.0 0.0 0.00 0.00 0.00 100 1009.6
20260506024302 26 0 0.0 0.0 0.00 0.00 0.00 25 1009.5
20260506023442 0 0 0.0 0.0 0.00 0.00 0.00 100 1009.6
20260506021522 32 0 0.0 0.0 0.00 0.00 0.00 18 1009.5
20260506020601 31 345 0.0 1.6 0.00 0.00 0.00 18 1009.7
20260506015632 30 0 0.0 0.0 0.00 0.00 0.00 20 1009.6
20260506014801 28 0 0.0 0.0 0.00 0.00 0.00 20 1009.7
20260506013842 28 0 0.0 0.0 0.00 0.00 0.00 21 1009.6
20260506012852 28 30 0.0 1.6 0.00 0.00 0.00 20 1009.7
20260506012042 30 5 0.0 1.6 0.00 0.00 0.00 18 1009.7
20260506011117 32 329 0.0 1.6 0.00 0.00 0.00 17 1009.7
20260506010303 31 46 0.0 1.6 0.00 0.00 0.00 17 1009.9
20260506005452 31 60 0.0 1.6 0.00 0.00 0.00 17 1009.9
20260506002847 30 322 0.0 1.6 0.00 0.00 0.00 18 1010.2
20260506001937 31 278 3.2 4.8 0.00 0.00 0.00 17 1010.2
20260506001137 31 0 0.0 0.0 0.00 0.00 0.00 17 1010.2
20260506000142 32 326 3.2 4.8 0.00 0.00 0.00 18 1010.4
20260505235247 30 119 0.0 1.6 0.00 0.00 0.00 20 1010.5
20260505234438 29 280 0.0 3.2 0.00 0.00 0.00 20 1010.5
20260505233632 30 311 3.2 6.4 0.00 0.00 0.00 20 1010.7
20260505232634 31 284 3.2 6.4 0.00 0.00 0.00 18 1010.8
20260505231702 37 302 3.2 8.0 0.00 0.00 0.00 14 1010.8
20260505225857 29 327 0.0 3.2 0.00 0.00 0.00 20 1011.1
20260505225016 28 284 3.2 6.4 0.00 0.00 0.00 20 1011.1
20260505224157 28 271 3.2 6.4 0.00 0.00 0.00 19 1011.3
20260505223257 30 265 3.2 6.4 0.00 0.00 0.00 18 1011.4
20260505222315 38 297 3.2 6.4 0.00 0.00 0.00 13 1011.4
20260505220512 35 277 1.6 3.2 0.00 0.00 0.00 15 1011.7
20260505214747 26 294 1.6 4.8 0.00 0.00 0.00 22 1011.9
20260505213941 26 297 3.2 4.8 0.00 0.00 0.00 22 1012.0
20260505212027 25 280 3.2 6.4 0.00 0.00 0.00 22 1012.3
20260505211107 25 277 0.0 4.8 0.00 0.00 0.00 23 1012.5
20260505210251 24 312 3.2 6.4 0.00 0.00 0.00 24 1012.5
20260505205305 23 298 3.2 8.0 0.00 0.00 0.00 24 1012.9
20260505204319 0 284 3.2 6.4 0.00 0.00 0.00 100 1013.0
20260505203432 23 294 0.0 3.2 0.00 0.00 0.00 29 1013.1
20260505200702 22 201 0.0 3.2 0.00 0.00 0.00 29 1013.4
20260505194022 21 299 3.2 9.7 0.00 0.00 0.00 30 1013.8
20260505193023 21 284 1.6 6.4 0.00 0.00 0.00 31 1013.8
20260505192207 21 291 0.0 1.6 0.00 0.00 0.00 30 1014.0
20260505191317 21 305 0.0 4.8 0.00 0.00 0.00 31 1013.9
20260505190402 21 254 0.0 1.6 0.00 0.00 0.00 31 1013.9
20260505185554 21 251 0.0 3.2 0.00 0.00 0.00 33 1014.1
20260505184633 20 285 3.2 6.4 0.00 0.00 0.00 33 1014.4
20260505183822 20 247 0.0 1.6 0.00 0.00 0.00 34 1014.3
20260505182827 20 305 1.6 4.8 0.00 0.00 0.00 33 1014.5
20260505181952 20 315 1.6 3.2 0.00 0.00 0.00 35 1014.5
20260505180115 18 214 0.0 3.2 0.00 0.00 0.00 37 1014.6
20260505174228 18 302 1.6 4.8 0.00 0.00 0.00 38 1014.8
20260505172553 17 288 0.0 3.2 0.00 0.00 0.00 41 1014.9
20260505171742 17 310 1.6 3.2 0.00 0.00 0.00 41 1015.0
20260505165926 17 311 0.0 3.2 0.00 0.00 0.00 43 1015.2
20260505164027 16 303 3.2 6.4 0.00 0.00 0.00 45 1015.2
20260505163152 16 282 0.0 3.2 0.00 0.00 0.00 45 1015.1
20260505162222 16 0 0.0 0.0 0.00 0.00 0.00 46 1015.3
20260505161221 15 300 0.0 1.6 0.00 0.00 0.00 47 1015.2
20260505152543 13 0 0.0 0.0 0.00 0.00 0.00 51 1015.2
20260505150732 12 99 0.0 1.6 0.00 0.00 0.00 55 1015.3
20260505140422 9 0 0.0 0.0 0.00 0.00 0.00 69 1015.0